Weather History for KSPW - June, 2013

Change the Weather History Date:

Sunday, June 23, 2013

  Actual Average Record
Temperature  
Mean Temperature 73 °F -  
Max Temperature 82 °F 81 °F 95 °F (2005)
Min Temperature 64 °F 58 °F 49 °F (1972)
Cooling Degree Days 8    
Growing Degree Days 23 (Base 50)    
Moisture  
Dew Point 64 °F    
Average Humidity 71    
Maximum Humidity 90    
Minimum Humidity 48    
Precipitation  
Precipitation 0.10 in - - ()
Sea Level Pressure  
Sea Level Pressure 29.81 in    
Wind  
Wind Speed 13 mph (WSW)    
Max Wind Speed 24 mph    
Max Gust Speed 37 mph    
Visibility 10 miles    
Events Rain , Thunderstorm    
Averages and records for this station are not official NWS values.
T = Trace of Precipitation, MM = Missing Value Source: NWS Daily Summary

Daily Weather History Graph

Daily Weather History Graph

Search for Another Location

Airport or City:

Trip Planner

Search our weather history database for the weather conditions in past years. The results will help you decide how hot, cold, wet, or windy it might be!

Date:

Astronomy

Jun. 23, 2013 Rise Set
Actual Time 5:41 AM CDT 9:04 PM CDT
Civil Twilight 5:06 AM CDT 9:40 PM CDT
Nautical Twilight 4:19 AM CDT 10:26 PM CDT
Astronomical Twilight 3:22 AM CDT 11:23 PM CDT
Moon 9:15 PM CDT (6/23) 6:02 AM CDT (6/23)
Length of Visible Light 16h 33m
Length of Day
15h 22m
Full, 100% of the Moon is Illuminated
Jun 23
Full
Jun 29
Last Quarter
Jul 8
New
Jul 15
First Quarter
Jul 22
Full

Hourly Weather History & Observations

Time (CDT) Temp. Heat Index Dew Point Humidity Pressure Visibility Wind Dir Wind Speed Gust Speed Precip Events Conditions
12:53 AM 75.0 °F - 66.0 °F 73% 29.73 in 10.0 mi SSE 13.8 mph - N/A   Clear
1:53 AM 75.0 °F - 66.0 °F 73% 29.73 in 10.0 mi South 10.4 mph - N/A   Clear
2:53 AM 75.0 °F - 66.0 °F 73% 29.73 in 10.0 mi South 16.1 mph - N/A   Overcast
3:53 AM 75.9 °F - 66.9 °F 74% 29.74 in 9.0 mi SSW 16.1 mph - 0.01 in Rain Light Rain
4:04 AM 75.2 °F - 68.0 °F 78% 29.76 in 4.0 mi SSW 23.0 mph 36.8 mph 0.07 in Rain , Thunderstorm Thunderstorms and Rain
4:24 AM 75.2 °F - 68.0 °F 78% 29.75 in 10.0 mi SW 24.2 mph 35.7 mph 0.08 in   Overcast
4:44 AM 71.6 °F - 64.4 °F 78% 29.77 in 10.0 mi West 18.4 mph 23.0 mph 0.08 in   Mostly Cloudy
4:53 AM 70.0 °F - 64.9 °F 84% 29.75 in 10.0 mi West 12.7 mph 28.8 mph 0.08 in   Scattered Clouds
5:53 AM 69.1 °F - 62.1 °F 78% 29.84 in 10.0 mi WSW 12.7 mph 19.6 mph N/A   Mostly Cloudy
6:53 AM 66.9 °F - 62.1 °F 84% 29.81 in 10.0 mi SW 9.2 mph - 0.00 in   Mostly Cloudy
7:53 AM 64.9 °F - 62.1 °F 90% 29.68 in 10.0 mi ESE 18.4 mph - 0.01 in Rain Light Rain
8:53 AM 68.0 °F - 63.0 °F 84% 29.77 in 10.0 mi WSW 5.8 mph - 0.00 in   Clear
9:53 AM 69.1 °F - 63.0 °F 81% 29.82 in 10.0 mi WSW 8.1 mph - N/A   Clear
10:53 AM 73.0 °F - 63.0 °F 71% 29.83 in 10.0 mi West 12.7 mph - N/A   Clear
11:53 AM 77.0 °F - 62.1 °F 60% 29.83 in 10.0 mi West 15.0 mph - N/A   Clear
12:53 PM 78.1 °F - 61.0 °F 56% 29.84 in 10.0 mi West 15.0 mph - N/A   Clear
1:53 PM 80.1 °F 80.7 °F 59.0 °F 48% 29.84 in 10.0 mi WSW 12.7 mph - N/A   Clear
2:53 PM 81.0 °F 81.7 °F 61.0 °F 50% 29.84 in 10.0 mi WSW 8.1 mph - N/A   Clear
3:53 PM 82.0 °F 83.0 °F 62.1 °F 51% 29.83 in 10.0 mi West 12.7 mph 17.3 mph N/A   Clear
4:53 PM 82.0 °F 83.0 °F 62.1 °F 51% 29.83 in 10.0 mi West 12.7 mph - N/A   Clear
5:53 PM 82.0 °F 83.4 °F 64.0 °F 54% 29.84 in 10.0 mi West 8.1 mph - N/A   Clear
6:53 PM 81.0 °F 82.5 °F 64.0 °F 56% 29.85 in 10.0 mi WNW 6.9 mph - N/A   Clear
7:53 PM 79.0 °F - 66.0 °F 64% 29.86 in 10.0 mi WNW 3.5 mph - N/A   Clear
8:53 PM 78.1 °F - 64.9 °F 64% 29.86 in 10.0 mi North 3.5 mph - N/A   Clear
9:53 PM 72.0 °F - 64.9 °F 78% 29.88 in 10.0 mi Calm Calm - N/A   Clear
10:53 PM 70.0 °F - 66.0 °F 87% 29.91 in 10.0 mi South 3.5 mph - N/A   Partly Cloudy
11:53 PM 68.0 °F - 64.0 °F 87% 29.91 in 10.0 mi SSE 5.8 mph - N/A   Clear